Main page
METAR-TAF:

METAR-TAF

Airports :

Oil platform

A12-cpp, Netherlands

latitude: 55-23-57N, longitude: 3-48-37E, elevation: 33 m

Current weather observation

The report was made 27 minutes ago, at 17:25 UTC
Wind 18 kt from the South/Southeast
Temperature 12°C
Humidity 94%
Pressure 1022 hPa
Visibility 10 km or more

METAR: EHAK 151725Z AUTO 16018KT 9999 SCT005/// BKN037/// 12/11 Q1022 W///H///

Time: 18:52 (17:52 UTC)


TAF: missing

Weather observations and forecasts of more than 4000 airports (METAR and TAF reports).

The available stations are represented by yellow and red dots on the map.

Hover mouse over dot to see the name of the station.

Then click to see weather observations and forecasts.

To change the map : click on the green buttons with a black cross to zoom in, on the green button with a dash to zoom out, or on the green arrows for adjacent maps.


METAR-TAF: